TimeEDT,TemperatureF,Dew PointF,Humidity,Sea Level PressureIn,VisibilityMPH,Wind Direction,Wind SpeedMPH,Gust SpeedMPH,PrecipitationIn,Events,Conditions,WindDirDegrees,DateUTC
12:15 AM,48.2,42.8,82,29.82,10.0,SSW,5.8,-,N/A,,Overcast,210,2012-10-11 04:15:00
12:35 AM,48.2,41.0,76,29.82,10.0,WSW,3.5,-,N/A,,Mostly Cloudy,250,2012-10-11 04:35:00
1:15 AM,48.2,37.4,66,29.84,10.0,WSW,4.6,-,N/A,,Clear,240,2012-10-11 05:15:00
1:35 AM,46.4,37.4,71,29.84,10.0,WSW,5.8,-,N/A,,Clear,240,2012-10-11 05:35:00
1:55 AM,44.6,37.4,76,29.85,10.0,SSW,5.8,-,N/A,,Clear,210,2012-10-11 05:55:00
2:15 AM,44.6,37.4,76,29.84,10.0,South,6.9,-,N/A,,Partly Cloudy,180,2012-10-11 06:15:00
2:35 AM,44.6,37.4,76,29.85,10.0,SSW,6.9,-,N/A,,Clear,200,2012-10-11 06:35:00
2:55 AM,44.6,35.6,71,29.85,10.0,SW,5.8,-,N/A,,Clear,230,2012-10-11 06:55:00
3:15 AM,44.6,35.6,71,29.87,10.0,West,4.6,-,N/A,,Clear,280,2012-10-11 07:15:00
3:35 AM,46.4,33.8,62,29.87,10.0,West,5.8,-,N/A,,Clear,270,2012-10-11 07:35:00
4:15 AM,44.6,33.8,66,29.89,10.0,SSW,6.9,-,N/A,,Partly Cloudy,210,2012-10-11 08:15:00
4:35 AM,44.6,33.8,66,29.90,10.0,West,6.9,-,N/A,,Clear,260,2012-10-11 08:35:00
4:55 AM,44.6,33.8,66,29.91,10.0,WSW,4.6,-,N/A,,Clear,240,2012-10-11 08:55:00
5:15 AM,44.6,33.8,66,29.93,10.0,SW,4.6,-,N/A,,Scattered Clouds,230,2012-10-11 09:15:00
5:35 AM,44.6,33.8,66,29.94,10.0,WSW,3.5,-,N/A,,Partly Cloudy,240,2012-10-11 09:35:00
5:55 AM,44.6,33.8,66,29.95,10.0,West,4.6,-,N/A,,Partly Cloudy,260,2012-10-11 09:55:00
6:15 AM,44.6,33.8,66,29.96,10.0,West,3.5,-,N/A,,Clear,280,2012-10-11 10:15:00
6:35 AM,44.6,33.8,66,29.97,10.0,Calm,Calm,-,N/A,,Partly Cloudy,0,2012-10-11 10:35:00
6:55 AM,44.6,33.8,66,29.97,10.0,Calm,Calm,-,N/A,,Scattered Clouds,0,2012-10-11 10:55:00
7:15 AM,41.0,33.8,76,29.99,10.0,South,5.8,-,N/A,,Mostly Cloudy,180,2012-10-11 11:15:00
7:55 AM,42.8,35.6,76,30.02,10.0,SSW,5.8,-,N/A,,Overcast,200,2012-10-11 11:55:00
8:15 AM,44.6,35.6,71,30.02,10.0,SSW,3.5,-,N/A,,Overcast,210,2012-10-11 12:15:00
8:35 AM,44.6,35.6,71,30.04,10.0,WSW,5.8,-,N/A,,Overcast,240,2012-10-11 12:35:00
8:55 AM,46.4,35.6,66,30.05,10.0,West,5.8,-,N/A,,Scattered Clouds,260,2012-10-11 12:55:00
9:15 AM,46.4,35.6,66,30.06,10.0,SW,6.9,-,N/A,,Clear,230,2012-10-11 13:15:00
9:35 AM,48.2,33.8,58,30.07,10.0,West,9.2,-,N/A,,Clear,270,2012-10-11 13:35:00
9:55 AM,48.2,33.8,58,30.07,10.0,West,9.2,16.1,N/A,,Clear,280,2012-10-11 13:55:00
10:15 AM,48.2,32.0,54,30.07,10.0,WSW,13.8,17.3,N/A,,Clear,250,2012-10-11 14:15:00
10:35 AM,50.0,30.2,47,30.08,10.0,West,5.8,19.6,N/A,,Clear,260,2012-10-11 14:35:00
10:55 AM,51.8,30.2,44,30.08,10.0,WSW,16.1,21.9,N/A,,Partly Cloudy,250,2012-10-11 14:55:00
11:15 AM,51.8,30.2,44,30.08,10.0,West,12.7,18.4,N/A,,Partly Cloudy,270,2012-10-11 15:15:00
11:35 AM,51.8,30.2,44,30.08,10.0,West,15.0,24.2,N/A,,Partly Cloudy,280,2012-10-11 15:35:00
11:55 AM,51.8,30.2,44,30.09,10.0,WNW,10.4,21.9,N/A,,Scattered Clouds,300,2012-10-11 15:55:00
12:15 PM,50.0,30.2,47,30.09,10.0,NW,8.1,-,N/A,,Mostly Cloudy,320,2012-10-11 16:15:00
12:55 PM,51.8,32.0,47,30.08,10.0,West,4.6,-,N/A,,Overcast,260,2012-10-11 16:55:00
1:15 PM,53.6,32.0,44,30.08,10.0,WNW,12.7,20.7,N/A,,Overcast,290,2012-10-11 17:15:00
1:55 PM,53.6,30.2,41,30.08,10.0,West,12.7,20.7,N/A,,Overcast,270,2012-10-11 17:55:00
2:15 PM,53.6,30.2,41,30.08,10.0,WSW,9.2,23.0,N/A,,Mostly Cloudy,250,2012-10-11 18:15:00
2:35 PM,53.6,30.2,41,30.08,10.0,SW,12.7,19.6,N/A,,Mostly Cloudy,230,2012-10-11 18:35:00
2:55 PM,51.8,30.2,44,30.08,10.0,WSW,9.2,20.7,N/A,,Mostly Cloudy,250,2012-10-11 18:55:00
3:35 PM,53.6,30.2,41,30.09,10.0,West,13.8,21.9,N/A,,Overcast,260,2012-10-11 19:35:00
3:55 PM,53.6,30.2,41,30.09,10.0,WSW,8.1,17.3,N/A,,Overcast,240,2012-10-11 19:55:00
4:15 PM,53.6,30.2,41,30.08,10.0,NW,10.4,-,N/A,,Scattered Clouds,310,2012-10-11 20:15:00
5:15 PM,53.6,28.4,38,30.09,10.0,WSW,6.9,-,N/A,,Clear,250,2012-10-11 21:15:00
6:15 PM,50.0,30.2,47,30.10,10.0,SW,4.6,-,N/A,,Clear,230,2012-10-11 22:15:00
7:15 PM,42.8,33.8,70,30.10,10.0,Calm,Calm,-,N/A,,Clear,0,2012-10-11 23:15:00
7:35 PM,41.0,33.8,76,30.10,10.0,SSW,3.5,-,N/A,,Clear,200,2012-10-11 23:35:00
7:55 PM,39.2,33.8,81,30.10,10.0,Calm,Calm,-,N/A,,Clear,0,2012-10-11 23:55:00
8:15 PM,39.2,33.8,81,30.10,10.0,Calm,Calm,-,N/A,,Clear,0,2012-10-12 00:15:00
8:35 PM,39.2,33.8,81,30.10,10.0,SSW,3.5,-,N/A,,Clear,200,2012-10-12 00:35:00
8:55 PM,39.2,33.8,81,30.09,10.0,South,4.6,-,N/A,,Clear,180,2012-10-12 00:55:00
9:15 PM,37.4,33.8,87,30.08,10.0,SSW,3.5,-,N/A,,Clear,200,2012-10-12 01:15:00
9:55 PM,37.4,33.8,87,30.09,10.0,Calm,Calm,-,N/A,,Clear,0,2012-10-12 01:55:00
10:15 PM,37.4,33.8,87,30.09,10.0,Calm,Calm,-,N/A,,Clear,0,2012-10-12 02:15:00
10:35 PM,-9999,-9999,N/A,30.08,10.0,Calm,Calm,-,N/A,,Clear,0,2012-10-12 02:35:00
10:55 PM,35.6,33.8,93,30.09,10.0,Calm,Calm,-,N/A,,Clear,0,2012-10-12 02:55:00
11:55 PM,35.6,32.0,87,30.08,10.0,Calm,Calm,-,N/A,,Clear,0,2012-10-12 03:55:00